This is the latest recevied weather packets stored in our database for station/object DB0SMU-12. If no packets are shown the sender has not sent any weather packets the latest 1 day(s).
| Time | Temp. | Humidity | Pressure | Rain* | Wind** | Luminosity | Snow |
|---|---|---|---|---|---|---|---|
| 1777959223 | 11.67° C | 79% | 1010.6 hPa | 0 mm | 0.89 m/s, 143° | - | - |
| 1777959043 | 11.67° C | 79% | 1010.6 hPa | 0 mm | 0.89 m/s, 137° | - | - |
| 1777958862 | 11.11° C | 79% | 1010.6 hPa | 0 mm | 0.89 m/s, 177° | - | - |
| 1777958681 | 11.11° C | 79% | 1010.6 hPa | 0 mm | 0.89 m/s, 224° | - | - |
| 1777958500 | 11.11° C | 80% | 1010.7 hPa | 0 mm | 1.79 m/s, 206° | - | - |
| 1777958319 | 11.11° C | 80% | 1010.6 hPa | 0 mm | 1.79 m/s, 222° | - | - |
| 1777958139 | 10.56° C | 80% | 1010.7 hPa | 0 mm | 2.68 m/s, 225° | - | - |
| 1777957958 | 10.56° C | 81% | 1010.8 hPa | 0 mm | 2.24 m/s, 224° | - | - |
| 1777957777 | 10.56° C | 81% | 1010.8 hPa | 0 mm | 1.79 m/s, 218° | - | - |
| 1777957596 | 10.56° C | 80% | 1010.9 hPa | 0 mm | 1.79 m/s, 214° | - | - |
| 1777957415 | 10.56° C | 80% | 1010.8 hPa | 0 mm | 1.34 m/s, 212° | - | - |
| 1777957234 | 10.56° C | 80% | 1010.8 hPa | 0 mm | 0.89 m/s, 195° | - | - |
| 1777957053 | 10.56° C | 80% | 1010.8 hPa | 0 mm | 0.45 m/s, 192° | - | - |
| 1777956872 | 10° C | 81% | 1010.9 hPa | 0 mm | 1.34 m/s, 216° | - | - |
| 1777956691 | 10° C | 81% | 1010.9 hPa | 0 mm | 1.34 m/s, 223° | - | - |
| 1777956510 | 10° C | 80% | 1010.9 hPa | 0 mm | 1.79 m/s, 209° | - | - |
| 1777956329 | 10° C | 81% | 1010.9 hPa | 0 mm | 1.34 m/s, 209° | - | - |
| 1777956149 | 10° C | 80% | 1011 hPa | 0 mm | 1.79 m/s, 224° | - | - |
| 1777955968 | 10° C | 79% | 1011.1 hPa | 0 mm | 3.13 m/s, 219° | - | - |
| 1777955787 | 9.44° C | 80% | 1011 hPa | 0 mm | 2.68 m/s, 205° | - | - |
| 1777955606 | 9.44° C | 80% | 1011 hPa | 0 mm | 1.79 m/s, 217° | - | - |
| 1777955425 | 9.44° C | 80% | 1011 hPa | 0 mm | 2.24 m/s, 224° | - | - |
| 1777955244 | 9.44° C | 80% | 1010.9 hPa | 0.25 mm | 2.24 m/s, 225° | - | - |
| 1777955063 | 9.44° C | 80% | 1011 hPa | 0.25 mm | 2.24 m/s, 224° | - | - |
| 1777954882 | 9.44° C | 80% | 1011 hPa | 0.25 mm | 2.24 m/s, 223° | - | - |
* Rain latest hour (hover to see other rain measurements)
** Current wind speed in m/s (hover to see current wind gust speed)